Location: Kosice
(0.0000°N, 21.2500°E)
Time: 05:16:35
(UTC+01:00)

DELTA 2 R/B (1) - Pass Details

Date: 24 January 2021
Orbit: 790 x 802 km, 39.6° (Epoch: 04 March)

Event Time Altitude Azimuth Distance (km) Brightness Sun altitude
Rises 19:29:04 0° 307° (NW) 3,269 7.2 -24.0°
Reaches altitude 10° 19:31:33 10° 305° (NW) 2,341 6.4 -24.6°
Maximum altitude 19:37:02 68° 222° (SW) 845 3.8 -25.8°
Enters shadow 19:39:15 36° 151° (SSE) 1,221 4.4 -26.4°
